When you browse on this site, cookies collect data to enhance your experience and personalize the content and advertising you see.
Visit our Privacy Policy to learn more. By continuing to use the site, you agree to this use of cookies and data.
  • In Sweden
  • List of Countries
  • For 7 days
  • Water Temperature
  • Satellite Maps
  • Weather Map
  • Weather Widgets
  • user-avatar
    Login

    Hourly Weather Omelyanivka

    Today, 18 June, Tuesday

    Time Temperature Precipitation Wind Pressure Humidity
    00:00 +23°C° 0 mm 1 mps 746 mmHg 81%
    01:00 +23°C° 0 mm 1 mps 746 mmHg 82%
    02:00 +22°C° 0 mm 1 mps 746 mmHg 83%
    03:00 +22°C° 0.1 mm 1 mps 746 mmHg 85%
    04:00 +22°C° 0.1 mm 1 mps 746 mmHg 87%
    05:00 +21°C° 0.1 mm 2 mps 746 mmHg 88%
    06:00 +23°C° 0.8 mm 2 mps 747 mmHg 85%
    07:00 +24°C° 0.8 mm 3 mps 747 mmHg 82%
    08:00 +26°C° 0.8 mm 3 mps 747 mmHg 78%
    09:00 +26°C° 1 mm 3 mps 747 mmHg 75%
    10:00 +27°C° 1 mm 4 mps 747 mmHg 72%
    11:00 +28°C° 1 mm 4 mps 747 mmHg 68%
    12:00 +28°C° 0.3 mm 4 mps 747 mmHg 67%
    13:00 +29°C° 0.3 mm 4 mps 747 mmHg 66%
    14:00 +29°C° 0.3 mm 5 mps 747 mmHg 65%
    15:00 +29°C° 0.6 mm 4 mps 746 mmHg 67%
    16:00 +28°C° 0.6 mm 4 mps 746 mmHg 69%
    17:00 +28°C° 0.6 mm 4 mps 746 mmHg 70%
    18:00 +27°C° 0.3 mm 4 mps 746 mmHg 75%
    19:00 +25°C° 0.3 mm 4 mps 746 mmHg 79%
    20:00 +24°C° 0.3 mm 3 mps 746 mmHg 84%
    21:00 +22°C° 0 mm 3 mps 746 mmHg 85%
    22:00 +22°C° 0 mm 3 mps 746 mmHg 87%
    23:00 +21°C° 0 mm 3 mps 746 mmHg 88%

    Tomorrow, 19 June, Wednesday

    Time Temperature Precipitation Wind Pressure Humidity
    00:00 +21°C° 0 mm 3 mps 746 mmHg 90%
    01:00 +20°C° 0 mm 3 mps 746 mmHg 91%
    02:00 +20°C° 0 mm 3 mps 746 mmHg 93%
    03:00 +20°C° 0 mm 3 mps 746 mmHg 93%
    04:00 +20°C° 0 mm 3 mps 746 mmHg 93%
    05:00 +19°C° 0 mm 3 mps 746 mmHg 93%
    06:00 +21°C° 0 mm 3 mps 746 mmHg 87%
    07:00 +22°C° 0 mm 3 mps 746 mmHg 81%
    08:00 +25°C° 0 mm 3 mps 746 mmHg 76%
    09:00 +26°C° 0 mm 4 mps 746 mmHg 70%
    10:00 +27°C° 0 mm 4 mps 746 mmHg 65%
    11:00 +28°C° 0 mm 4 mps 746 mmHg 60%
    12:00 +29°C° 0 mm 4 mps 746 mmHg 57%
    13:00 +29°C° 0 mm 3 mps 746 mmHg 55%
    14:00 +30°C° 0 mm 3 mps 746 mmHg 53%
    15:00 +29°C° 0 mm 3 mps 745 mmHg 54%
    16:00 +29°C° 0 mm 4 mps 745 mmHg 56%
    17:00 +29°C° 0 mm 4 mps 745 mmHg 58%
    18:00 +27°C° 0 mm 3 mps 745 mmHg 64%
    19:00 +26°C° 0 mm 3 mps 745 mmHg 71%
    20:00 +24°C° 0 mm 3 mps 745 mmHg 77%
    21:00 +22°C° 0 mm 3 mps 745 mmHg 80%
    22:00 +22°C° 0 mm 3 mps 745 mmHg 82%
    23:00 +21°C° 0 mm 2 mps 745 mmHg 84%

    Day after tomorrow, 20 June, Thursday

    Time Temperature Precipitation Wind Pressure Humidity
    00:00 +20°C° 0 mm 2 mps 745 mmHg 86%
    01:00 +20°C° 0 mm 2 mps 745 mmHg 88%
    02:00 +20°C° 0 mm 2 mps 745 mmHg 90%
    03:00 +20°C° 0 mm 2 mps 745 mmHg 90%
    04:00 +19°C° 0 mm 2 mps 745 mmHg 91%
    05:00 +19°C° 0 mm 2 mps 745 mmHg 91%
    06:00 +21°C° 0 mm 2 mps 745 mmHg 85%
    07:00 +24°C° 0 mm 2 mps 745 mmHg 79%
    08:00 +25°C° 0 mm 2 mps 745 mmHg 73%
    09:00 +27°C° 0 mm 2 mps 745 mmHg 67%
    10:00 +28°C° 0 mm 2 mps 745 mmHg 62%
    11:00 +29°C° 0 mm 2 mps 745 mmHg 56%
    12:00 +29°C° 0 mm 2 mps 745 mmHg 54%
    13:00 +30°C° 0 mm 2 mps 744 mmHg 53%
    14:00 +30°C° 0 mm 2 mps 744 mmHg 51%
    15:00 +30°C° 0 mm 2 mps 744 mmHg 53%
    16:00 +30°C° 0 mm 2 mps 744 mmHg 54%
    17:00 +30°C° 0 mm 2 mps 744 mmHg 56%
    18:00 +29°C° 0 mm 2 mps 744 mmHg 62%
    19:00 +27°C° 0 mm 2 mps 744 mmHg 68%
    20:00 +25°C° 0 mm 2 mps 744 mmHg 74%
    21:00 +25°C° 0 mm 2 mps 744 mmHg 75%
    22:00 +24°C° 0 mm 2 mps 744 mmHg 77%
    23:00 +22°C° 0 mm 3 mps 745 mmHg 79%

    21 June, Friday

    Time Temperature Precipitation Wind Pressure Humidity
    00:00 +23°C° 0 mm 2 mps 745 mmHg 79%
    01:00 +23°C° 0 mm 2 mps 745 mmHg 80%
    02:00 +21°C° 0 mm 2 mps 745 mmHg 81%
    03:00 +21°C° 0 mm 2 mps 745 mmHg 81%
    04:00 +21°C° 0 mm 2 mps 745 mmHg 81%
    05:00 +21°C° 0 mm 2 mps 745 mmHg 82%
    06:00 +24°C° 0 mm 2 mps 745 mmHg 76%
    07:00 +25°C° 0 mm 2 mps 745 mmHg 71%
    08:00 +27°C° 0 mm 3 mps 746 mmHg 66%
    09:00 +28°C° 0.1 mm 3 mps 746 mmHg 62%
    10:00 +29°C° 0.1 mm 3 mps 746 mmHg 58%
    11:00 +30°C° 0.1 mm 4 mps 746 mmHg 54%
    12:00 +32°C° 0.1 mm 4 mps 746 mmHg 51%
    13:00 +31°C° 0.1 mm 3 mps 746 mmHg 49%
    14:00 +33°C° 0.1 mm 3 mps 745 mmHg 46%
    15:00 +33°C° 0 mm 3 mps 745 mmHg 47%
    16:00 +31°C° 0 mm 2 mps 745 mmHg 47%
    17:00 +31°C° 0 mm 2 mps 745 mmHg 48%
    18:00 +30°C° 0 mm 2 mps 745 mmHg 52%
    19:00 +28°C° 0 mm 1 mps 745 mmHg 57%
    20:00 +26°C° 0 mm 1 mps 745 mmHg 61%
    21:00 +26°C° 0 mm 1 mps 745 mmHg 63%
    22:00 +25°C° 0 mm 1 mps 745 mmHg 64%
    23:00 +24°C° 0 mm 2 mps 745 mmHg 66%

    22 June, Saturday

    Time Temperature Precipitation Wind Pressure Humidity
    00:00 +24°C° 0 mm 2 mps 745 mmHg 65%
    01:00 +23°C° 0 mm 2 mps 745 mmHg 64%
    02:00 +23°C° 0 mm 2 mps 745 mmHg 63%
    03:00 +23°C° 0 mm 2 mps 745 mmHg 64%
    04:00 +23°C° 0 mm 2 mps 745 mmHg 65%
    05:00 +22°C° 0 mm 1 mps 745 mmHg 66%
    06:00 +24°C° 0 mm 2 mps 745 mmHg 63%
    07:00 +26°C° 0 mm 2 mps 746 mmHg 61%
    08:00 +27°C° 0 mm 2 mps 746 mmHg 58%
    09:00 +29°C° 0 mm 2 mps 746 mmHg 56%
    10:00 +30°C° 0 mm 3 mps 746 mmHg 53%
    11:00 +31°C° 0 mm 3 mps 746 mmHg 50%
    12:00 +31°C° 0 mm 3 mps 746 mmHg 51%
    13:00 +31°C° 0 mm 2 mps 746 mmHg 52%
    14:00 +31°C° 0 mm 2 mps 746 mmHg 53%
    15:00 +30°C° 0.2 mm 2 mps 745 mmHg 57%
    16:00 +28°C° 0.2 mm 3 mps 745 mmHg 60%
    17:00 +27°C° 0.2 mm 4 mps 745 mmHg 64%
    18:00 +26°C° 0.3 mm 3 mps 745 mmHg 65%
    19:00 +26°C° 0.3 mm 3 mps 745 mmHg 67%
    20:00 +25°C° 0.3 mm 2 mps 745 mmHg 68%
    21:00 +24°C° 0.2 mm 2 mps 746 mmHg 69%
    22:00 +24°C° 0.2 mm 1 mps 746 mmHg 71%
    23:00 +24°C° 0.2 mm 1 mps 746 mmHg 72%

    23 June, Sunday

    Time Temperature Precipitation Wind Pressure Humidity
    00:00 +23°C° 0.9 mm 1 mps 746 mmHg 76%
    01:00 +22°C° 0.9 mm 1 mps 746 mmHg 80%
    02:00 +22°C° 0.9 mm 1 mps 746 mmHg 84%
    03:00 +22°C° 0.1 mm 1 mps 746 mmHg 84%
    04:00 +21°C° 0.1 mm 2 mps 746 mmHg 83%
    05:00 +21°C° 0.1 mm 2 mps 746 mmHg 83%
    06:00 +23°C° 0 mm 2 mps 746 mmHg 81%
    07:00 +24°C° 0 mm 1 mps 746 mmHg 79%
    08:00 +25°C° 0 mm 1 mps 746 mmHg 77%
    09:00 +25°C° 0 mm 1 mps 746 mmHg 75%
    10:00 +26°C° 0 mm 2 mps 746 mmHg 73%
    11:00 +26°C° 0 mm 2 mps 746 mmHg 71%
    12:00 +28°C° 0 mm 2 mps 746 mmHg 65%
    13:00 +29°C° 0 mm 2 mps 746 mmHg 59%
    14:00 +30°C° 0 mm 3 mps 746 mmHg 54%
    15:00 +31°C° 0.1 mm 3 mps 746 mmHg 53%
    16:00 +31°C° 0.1 mm 3 mps 746 mmHg 52%
    17:00 +31°C° 0.1 mm 3 mps 745 mmHg 52%
    18:00 +29°C° 0.4 mm 2 mps 745 mmHg 58%
    19:00 +28°C° 0.4 mm 2 mps 745 mmHg 65%
    20:00 +26°C° 0.4 mm 1 mps 745 mmHg 72%
    21:00 +25°C° 1.7 mm 1 mps 745 mmHg 76%
    22:00 +24°C° 1.7 mm 1 mps 746 mmHg 80%
    23:00 +23°C° 1.7 mm 1 mps 746 mmHg 84%
    Show more